CW9648 Weather Reports


Display with metric or nautical units.
time (UTC)temp
F
wind
direction
speed
MPH
gust
MPH
rain 1hr
in
rain 24hr
in
rain mn
in
humidity
%
barometer
mb
20260506012004 78 172 2.0 6.0 0.00 0.00 0.00 89 1007.9
20260506011504 78 172 1.0 4.0 0.00 0.00 0.00 88 1007.8
20260506011004 78 206 1.0 5.0 0.00 0.00 0.00 88 1007.7
20260506010504 78 206 2.0 5.0 0.00 0.00 0.00 87 1007.6
20260506010004 78 191 2.0 5.0 0.00 0.00 0.00 87 1007.6
20260506005504 78 186 2.0 7.0 0.00 0.00 0.00 87 1007.5
20260506005004 78 192 2.0 7.0 0.00 0.00 0.00 87 1007.5
20260506004504 78 194 2.0 6.0 0.00 0.00 0.00 87 1007.4
20260506004004 79 191 2.0 6.0 0.00 0.00 0.00 87 1007.3
20260506003504 79 182 2.0 6.0 0.00 0.00 0.00 86 1007.2
20260506003004 79 176 2.0 6.0 0.00 0.00 0.00 86 1007.4
20260506002504 79 193 2.0 4.0 0.00 0.00 0.00 86 1007.3
20260506002004 79 197 2.0 4.0 0.00 0.00 0.00 86 1007.4
20260506001507 79 180 2.0 5.0 0.00 0.00 0.00 85 1007.5
20260506001025 79 191 2.0 5.0 0.00 0.00 0.00 85 1007.4
20260506000524 80 213 1.0 5.0 0.00 0.00 0.00 85 1007.5
20260506000004 80 323 2.0 4.0 0.00 0.00 0.00 84 1007.3
20260505235504 80 2 2.0 6.0 0.00 0.00 0.00 84 1007.4
20260505235003 80 359 2.0 6.0 0.00 0.00 0.00 83 1007.4
20260505234503 80 181 3.0 8.0 0.00 0.00 0.00 83 1007.4
20260505234003 81 173 3.0 9.0 0.00 0.00 0.00 82 1007.4
20260505233525 81 173 3.0 9.0 0.00 0.00 0.00 82 1007.4
20260505233004 81 172 3.0 9.0 0.00 0.00 0.00 82 1007.5
20260505232504 82 174 4.0 9.0 0.00 0.00 0.00 81 1007.6
20260505232004 82 185 3.0 9.0 0.00 0.00 0.00 80 1007.6
20260505231525 82 193 2.0 6.0 0.00 0.00 0.00 80 1007.5
20260505231003 82 201 2.0 6.0 0.00 0.00 0.00 80 1007.6
20260505230504 82 217 2.0 5.0 0.00 0.00 0.00 80 1007.6
20260505230004 82 176 3.0 10.0 0.00 0.00 0.00 80 1007.6
20260505225504 82 167 3.0 10.0 0.00 0.00 0.00 80 1007.6
20260505225003 83 171 2.0 6.0 0.00 0.00 0.00 80 1007.7
20260505224503 83 170 2.0 6.0 0.00 0.00 0.00 80 1007.7
20260505224004 82 191 2.0 5.0 0.00 0.00 0.00 80 1007.7
20260505223525 82 180 2.0 8.0 0.00 0.00 0.00 79 1007.6
20260505223004 83 171 3.0 8.0 0.00 0.00 0.00 79 1007.7
20260505222525 83 177 2.0 6.0 0.00 0.00 0.00 80 1007.7
20260505222003 82 173 2.0 12.0 0.00 0.00 0.00 81 1007.8
20260505221503 82 168 3.0 12.0 0.00 0.00 0.00 80 1007.8
20260505221004 82 169 3.0 9.0 0.00 0.00 0.00 79 1007.7
20260505220503 83 179 3.0 8.0 0.00 0.00 0.00 78 1007.6
20260505220004 83 179 4.0 10.0 0.00 0.00 0.00 78 1007.5
20260505215504 83 175 4.0 10.0 0.00 0.00 0.00 77 1007.6
20260505215003 84 173 3.0 11.0 0.00 0.00 0.00 77 1007.6
20260505214503 84 190 3.0 11.0 0.00 0.00 0.00 77 1007.5
20260505214004 83 217 3.0 6.0 0.00 0.00 0.00 77 1007.5
20260505213524 83 191 4.0 11.0 0.00 0.00 0.00 77 1007.7
20260505213003 84 176 4.0 11.0 0.00 0.00 0.00 77 1007.5
20260505212503 84 174 4.0 11.0 0.00 0.00 0.00 77 1007.7
20260505212003 84 167 5.0 11.0 0.00 0.00 0.00 77 1007.8
20260505211503 84 179 4.0 10.0 0.00 0.00 0.00 77 1007.8
20260505211003 84 206 4.0 10.0 0.00 0.00 0.00 77 1007.8
20260505210524 83 216 4.0 10.0 0.00 0.00 0.00 76 1007.9
20260505210004 83 208 4.0 10.0 0.00 0.00 0.00 77 1007.9
20260505205503 84 187 3.0 10.0 0.00 0.00 0.00 76 1008.1
20260505205024 84 177 3.0 9.0 0.00 0.00 0.00 78 1008.1
20260505204503 83 182 4.0 10.0 0.00 0.00 0.00 78 1008.2
20260505204003 83 175 3.0 10.0 0.00 0.00 0.00 78 1008.2
20260505203503 83 167 4.0 12.0 0.00 0.00 0.00 78 1008.3
20260505203024 84 188 5.0 12.0 0.00 0.00 0.00 76 1008.4
20260505202503 84 211 4.0 11.0 0.00 0.00 0.00 74 1008.4
20260505202024 84 177 5.0 14.0 0.00 0.00 0.00 75 1008.4
20260505201504 84 166 6.0 14.0 0.00 0.00 0.00 76 1008.4
20260505201003 84 170 5.0 14.0 0.00 0.00 0.00 77 1008.5
20260505200504 83 185 4.0 14.0 0.00 0.00 0.00 78 1008.4
20260505200004 83 180 5.0 13.0 0.00 0.00 0.00 77 1008.6
20260505195504 83 171 5.0 13.0 0.00 0.00 0.00 78 1008.7
20260505195024 83 192 4.0 9.0 0.00 0.00 0.00 79 1008.8
20260505194504 83 223 3.0 9.0 0.00 0.00 0.00 79 1008.9
20260505194003 82 267 3.0 11.0 0.00 0.00 0.00 80 1008.9
20260505193503 82 207 3.0 11.0 0.00 0.00 0.00 81 1009.1
20260505193003 82 185 3.0 7.0 0.00 0.00 0.00 82 1009.1
20260505192504 81 184 2.0 7.0 0.00 0.00 0.00 83 1009.2
20260505192024 81 189 2.0 6.0 0.00 0.00 0.00 83 1009.2
20260505191503 81 288 2.0 6.0 0.00 0.00 0.00 84 1009.2
20260505191003 80 356 3.0 6.0 0.00 0.00 0.00 85 1009.2
20260505190503 79 360 3.0 6.0 0.00 0.00 0.00 85 1009.2
20260505190004 79 360 2.0 5.0 0.00 0.00 0.00 85 1009.3
20260505185503 79 360 2.0 5.0 0.00 0.00 0.00 85 1009.4
20260505185003 79 360 2.0 6.0 0.00 0.00 0.00 85 1009.4
20260505184524 79 360 3.0 8.0 0.00 0.00 0.00 84 1009.5
20260505184003 79 360 3.0 8.0 0.00 0.00 0.00 84 1009.4
20260505183503 80 360 3.0 8.0 0.00 0.00 0.00 83 1009.4
20260505183003 80 360 3.0 6.0 0.00 0.00 0.00 84 1009.4
20260505182503 80 360 2.0 5.0 0.00 0.00 0.00 85 1009.3
20260505182003 79 358 2.0 6.0 0.00 0.00 0.00 85 1009.4
20260505181503 79 355 2.0 8.0 0.00 0.00 0.00 84 1009.3
20260505181003 79 357 2.0 8.0 0.00 0.00 0.00 85 1009.4
20260505180503 78 359 2.0 7.0 0.00 0.00 0.00 86 1009.6
20260505180003 78 359 2.0 7.0 0.00 0.00 0.00 86 1009.5
20260505175503 78 360 2.0 6.0 0.00 0.00 0.00 86 1009.7
20260505175003 78 360 2.0 6.0 0.00 0.00 0.00 85 1009.7
20260505174503 78 359 2.0 5.0 0.00 0.00 0.00 85 1009.7
20260505174024 78 358 2.0 8.0 0.00 0.00 0.00 84 1009.7
20260505173503 78 357 3.0 8.0 0.00 0.00 0.00 84 1009.7
20260505173004 78 358 2.0 6.0 0.00 0.00 0.00 84 1009.6
20260505172524 78 344 2.0 6.0 0.00 0.00 0.00 85 1009.8
20260505172003 78 195 2.0 6.0 0.00 0.00 0.00 86 1010.1
20260505171503 78 189 2.0 6.0 0.00 0.00 0.00 87 1009.9
20260505171003 77 185 2.0 6.0 0.00 0.00 0.00 86 1010.1
20260505170503 77 180 2.0 6.0 0.00 0.00 0.00 86 1010.2
20260505170024 77 186 2.0 5.0 0.00 0.00 0.00 86 1010.2
20260505165504 77 190 2.0 9.0 0.00 0.00 0.00 86 1010.2
20260505165003 77 177 3.0 9.0 0.00 0.00 0.00 86 1010.1
20260505164504 77 178 3.0 9.0 0.00 0.00 0.00 86 1010.0
20260505164003 77 189 3.0 9.0 0.00 0.00 0.00 87 1009.8
20260505163524 77 193 3.0 7.0 0.00 0.00 0.00 87 1010.0
20260505163024 76 196 2.0 7.0 0.00 0.00 0.00 87 1010.1
20260505162503 76 194 2.0 7.0 0.00 0.00 0.00 87 1010.2
20260505162003 76 189 2.0 7.0 0.00 0.00 0.00 87 1010.2
20260505161524 76 195 1.0 5.0 0.00 0.00 0.00 88 1010.3
20260505161003 76 208 1.0 5.0 0.00 0.00 0.00 88 1010.3
20260505160503 76 207 2.0 6.0 0.00 0.00 0.00 88 1010.3
20260505153003 75 211 2.0 7.0 0.00 0.00 0.00 88 1010.0
20260505152503 75 186 2.0 7.0 0.00 0.00 0.00 88 1009.9
20260505152024 75 179 3.0 8.0 0.00 0.00 0.00 88 1010.1
20260505151503 75 189 3.0 8.0 0.00 0.00 0.00 88 1010.1
20260505151024 75 183 3.0 11.0 0.00 0.00 0.00 88 1010.0
20260505150503 74 183 3.0 11.0 0.00 0.00 0.00 88 1009.9
20260505140504 71 224 1.0 4.0 0.00 0.00 0.00 92 1010.2
20260505125004 70 199 1.0 4.0 0.00 0.00 0.00 92 1009.8
20260505124525 70 181 2.0 6.0 0.00 0.00 0.00 92 1009.8
20260505124004 70 169 3.0 7.0 0.00 0.00 0.00 92 1009.7
20260505123525 70 170 2.0 7.0 0.00 0.00 0.00 92 1009.6
20260505123004 70 171 2.0 6.0 0.00 0.00 0.00 92 1009.5
20260505122504 70 177 1.0 6.0 0.00 0.00 0.00 92 1009.3
20260505122004 70 185 1.0 4.0 0.00 0.00 0.00 92 1009.4
20260505121504 70 181 1.0 4.0 0.00 0.00 0.00 92 1009.4
20260505121025 70 182 1.0 4.0 0.00 0.00 0.00 92 1009.6
20260505120504 70 195 1.0 4.0 0.00 0.00 0.00 92 1009.7
20260505120005 70 206 1.0 4.0 0.00 0.00 0.00 92 1009.6
20260505115504 70 202 1.0 4.0 0.00 0.00 0.00 92 1009.3
20260505115004 70 183 2.0 7.0 0.00 0.00 0.00 92 1009.2
20260505114504 69 176 2.0 8.0 0.00 0.00 0.00 92 1009.1
20260505114004 69 173 3.0 10.0 0.00 0.00 0.00 92 1009.2
20260505113504 69 175 2.0 10.0 0.00 0.00 0.00 92 1009.2
20260505113004 69 187 2.0 7.0 0.00 0.00 0.00 92 1009.3
20260505112504 69 190 2.0 7.0 0.00 0.00 0.00 92 1009.3
20260505112004 69 195 2.0 4.0 0.00 0.00 0.00 92 1009.2
20260505111504 69 198 1.0 5.0 0.00 0.00 0.00 92 1009.3
20260505111004 69 209 1.0 5.0 0.00 0.00 0.00 92 1009.1
20260505110504 69 217 1.0 3.0 0.00 0.00 0.00 92 1009.0
20260505102004 68 172 1.0 4.0 0.00 0.00 0.00 92 1008.9
20260505101504 68 168 2.0 9.0 0.00 0.00 0.00 92 1009.0
20260505101004 68 169 2.0 9.0 0.00 0.00 0.00 92 1009.1
20260505100504 68 187 1.0 3.0 0.00 0.00 0.00 92 1009.2
20260505100004 68 197 1.0 3.0 0.00 0.00 0.00 92 1009.2
20260505095504 68 182 1.0 5.0 0.00 0.00 0.00 92 1009.3
20260505095004 68 183 1.0 5.0 0.00 0.00 0.00 92 1009.4
20260505094504 68 187 1.0 5.0 0.00 0.00 0.00 92 1009.4
20260505094004 68 175 2.0 5.0 0.00 0.00 0.00 92 1009.6
20260505093504 68 180 2.0 5.0 0.00 0.00 0.00 92 1009.5
20260505093004 68 193 1.0 4.0 0.00 0.00 0.00 92 1009.7
20260505092504 68 207 1.0 3.0 0.00 0.00 0.00 91 1009.7
20260505092004 68 200 1.0 4.0 0.00 0.00 0.00 91 1009.9
20260505091504 68 205 1.0 4.0 0.00 0.00 0.00 91 1010.0
20260505091004 68 203 1.0 4.0 0.00 0.00 0.00 91 1010.0
20260505090504 68 196 1.0 3.0 0.00 0.00 0.00 91 1009.8
20260505090004 68 195 1.0 2.0 0.00 0.00 0.00 91 1009.9
20260505085504 68 194 1.0 2.0 0.00 0.00 0.00 91 1009.9
20260505085025 68 197 1.0 3.0 0.00 0.00 0.00 91 1010.0
20260505084525 68 191 1.0 3.0 0.00 0.00 0.00 91 1010.0
20260505084004 68 186 1.0 5.0 0.00 0.00 0.00 90 1009.9
20260505083504 68 184 1.0 5.0 0.00 0.00 0.00 90 1009.9
20260505083004 68 179 2.0 7.0 0.00 0.00 0.00 90 1010.1
20260505082504 68 175 1.0 7.0 0.00 0.00 0.00 90 1010.2
20260505082004 68 188 1.0 3.0 0.00 0.00 0.00 90 1010.2
20260505081504 68 194 1.0 4.0 0.00 0.00 0.00 90 1010.3
20260505081004 68 197 1.0 4.0 0.00 0.00 0.00 90 1010.3
20260505080525 68 205 1.0 3.0 0.00 0.00 0.00 89 1010.2
20260505080025 68 187 1.0 4.0 0.00 0.00 0.00 89 1010.1
20260505075504 68 175 1.0 4.0 0.00 0.00 0.00 89 1010.1
20260505075025 69 177 1.0 4.0 0.00 0.00 0.00 89 1010.2
20260505074504 69 191 1.0 4.0 0.00 0.00 0.00 89 1010.4
20260505074025 69 197 1.0 5.0 0.00 0.00 0.00 88 1010.3
20260505073504 69 192 1.0 5.0 0.00 0.00 0.00 88 1010.3
20260505073025 69 192 2.0 5.0 0.00 0.00 0.00 88 1010.3
20260505072504 69 200 2.0 5.0 0.00 0.00 0.00 88 1010.3
20260505072004 69 207 2.0 5.0 0.00 0.00 0.00 88 1010.4
20260505071504 69 202 2.0 5.0 0.00 0.00 0.00 88 1010.4
20260505071004 69 214 2.0 4.0 0.00 0.00 0.00 88 1010.5
20260505070504 69 215 2.0 4.0 0.00 0.00 0.00 88 1010.6
20260505070004 69 196 2.0 4.0 0.00 0.00 0.00 88 1010.5
20260505065525 69 192 1.0 4.0 0.00 0.00 0.00 88 1010.5
20260505065004 69 203 1.0 3.0 0.00 0.00 0.00 87 1010.6
20260505064525 69 202 1.0 5.0 0.00 0.00 0.00 87 1010.7
20260505064004 69 190 2.0 7.0 0.00 0.00 0.00 87 1010.6
20260505063504 69 181 2.0 7.0 0.00 0.00 0.00 87 1010.8
20260505063004 69 182 2.0 6.0 0.00 0.00 0.00 87 1010.8
20260505062504 69 200 2.0 4.0 0.00 0.00 0.00 87 1010.9
20260505062004 69 204 2.0 5.0 0.00 0.00 0.00 87 1010.9
20260505061525 69 205 2.0 5.0 0.00 0.00 0.00 87 1011.0
20260505061025 69 183 3.0 9.0 0.00 0.00 0.00 86 1010.8
20260505060504 69 174 3.0 9.0 0.00 0.00 0.00 86 1010.8
20260505060025 69 185 2.0 9.0 0.00 0.00 0.00 86 1010.9
20260505055504 69 196 1.0 5.0 0.00 0.00 0.00 86 1011.0
20260505055004 69 207 1.0 4.0 0.00 0.00 0.00 86 1011.0
20260505054525 69 194 2.0 7.0 0.00 0.00 0.00 85 1011.1
20260505054025 69 188 2.0 7.0 0.00 0.00 0.00 85 1011.0
20260505053525 69 201 2.0 5.0 0.00 0.00 0.00 85 1011.0
20260505053004 69 194 2.0 5.0 0.00 0.00 0.00 85 1011.0
20260505052504 69 192 2.0 6.0 0.00 0.00 0.00 85 1011.1
20260505052004 69 200 2.0 6.0 0.00 0.00 0.00 84 1011.2
20260505051504 69 200 2.0 4.0 0.00 0.00 0.00 84 1011.3
20260505051025 69 196 2.0 9.0 0.00 0.00 0.00 84 1011.3
20260505050504 69 185 2.0 11.0 0.00 0.00 0.00 84 1011.2
20260505041504 70 200 2.0 5.0 0.00 0.00 0.00 81 1011.5
20260505041004 70 192 2.0 5.0 0.00 0.00 0.00 81 1011.6
20260505040504 70 193 2.0 5.0 0.00 0.00 0.00 81 1011.5
20260505040005 70 196 2.0 5.0 0.00 0.00 0.00 81 1011.5
20260505035504 70 195 3.0 9.0 0.00 0.00 0.00 81 1011.4
20260505035004 70 197 3.0 9.0 0.00 0.00 0.00 81 1011.4
20260505034504 71 193 2.0 7.0 0.00 0.00 0.00 81 1011.4
20260505034004 71 196 2.0 7.0 0.00 0.00 0.00 80 1011.3
20260505033504 71 198 2.0 7.0 0.00 0.00 0.00 80 1011.3
20260505033004 71 188 2.0 8.0 0.00 0.00 0.00 80 1011.3
20260505032504 71 188 2.0 8.0 0.00 0.00 0.00 80 1011.2
20260505032004 71 183 2.0 7.0 0.00 0.00 0.00 79 1011.3
20260505031504 71 187 2.0 7.0 0.00 0.00 0.00 79 1011.2
20260505031004 71 205 1.0 6.0 0.00 0.00 0.00 79 1011.4
20260505030504 71 195 2.0 5.0 0.00 0.00 0.00 79 1011.5
20260505030004 71 190 2.0 5.0 0.00 0.00 0.00 78 1011.5
20260505025504 71 198 2.0 5.0 0.00 0.00 0.00 78 1011.6
20260505025004 71 202 2.0 5.0 0.00 0.00 0.00 78 1011.6
20260505024504 71 195 2.0 7.0 0.00 0.00 0.00 77 1011.5
20260505024004 72 192 2.0 7.0 0.00 0.00 0.00 77 1011.5
20260505023504 72 191 2.0 6.0 0.00 0.00 0.00 77 1011.5
20260505023004 72 189 2.0 6.0 0.00 0.00 0.00 77 1011.4
20260505022504 72 189 2.0 6.0 0.00 0.00 0.00 76 1011.3
20260505022004 72 188 2.0 6.0 0.00 0.00 0.00 76 1011.2
20260505021504 72 203 2.0 6.0 0.00 0.00 0.00 76 1011.1
20260505021004 72 212 2.0 4.0 0.00 0.00 0.00 75 1011.1
20260505020525 72 200 2.0 11.0 0.00 0.00 0.00 75 1011.0
20260505020004 72 192 2.0 11.0 0.00 0.00 0.00 75 1010.9
20260505015504 72 184 2.0 7.0 0.00 0.00 0.00 74 1010.8
20260505015004 73 186 2.0 6.0 0.00 0.00 0.00 74 1010.9
20260505014504 73 193 2.0 6.0 0.00 0.00 0.00 74 1011.0
20260505014004 73 193 2.0 5.0 0.00 0.00 0.00 73 1011.0
20260505013525 73 195 2.0 5.0 0.00 0.00 0.00 73 1010.9
20260505013007 73 199 2.0 5.0 0.00 0.00 0.00 73 1010.7
20260505012504 73 193 1.0 5.0 0.00 0.00 0.00 73 1010.6